Probability
0 0 0 0 0 0 0 0 1 4 7 12 25 40 47 47 44 39 35 34 36 34 27 19 16 15 14 13 10 9 7 4 2 3 4 5 5 4 3 2 1 1 3 3
0 0 0 0 1 1 1 0 2 7 11 18 33 47 53 52 48 42 37 35 35 33 27 21 17 15 14 12 10 8 7 4 3 4 5 6 5 4 3 2 1 2 3 3
0 0 0 0 2 4 6 5 7 12 18 28 42 54 58 57 53 48 42 37 35 33 29 23 19 16 15 13 11 9 7 6 5 5 6 6 5 4 3 1 1 2 3 3
0 0 0 1 2 6 11 14 18 22 30 39 49 57 59 57 55 52 46 39 34 33 30 26 22 18 17 15 12 10 9 9 8 7 7 6 4 3 2 1 1 2 2 2
0 0 0 1 3 8 15 21 27 34 42 53 61 62 58 54 54 51 44 38 33 30 29 28 23 18 15 14 12 10 10 10 9 8 6 4 3 2 1 0 0 1 1 1
0 0 1 4 8 10 15 23 32 40 50 61 67 63 55 52 52 48 42 37 33 28 26 26 22 17 13 12 12 10 9 9 8 6 4 2 1 1 0 0 0 0 0 0
0 1 2 8 14 14 15 25 36 44 52 58 58 54 52 55 55 50 43 38 33 26 21 19 18 16 13 11 10 8 7 6 5 3 1 0 0 0 0 0 0 0 0 0
0 1 3 11 17 17 21 32 40 45 50 53 51 52 55 58 57 52 45 38 30 23 17 15 15 15 13 10 7 6 5 4 2 1 0 0 0 0 0 0 0 0 0 0
7 7 9 14 19 22 29 40 44 46 48 51 55 57 56 54 52 48 41 33 26 20 16 14 14 13 10 7 6 5 3 2 1 0 0 0 0 0 0 0 0 0 0 0
19 20 21 23 25 28 34 42 46 45 46 50 56 55 50 45 40 38 34 28 23 20 17 14 12 11 8 5 4 3 2 1 0 0 0 0 0 0 0 0 0 0 0 0
22 24 25 27 29 31 33 37 41 41 41 43 46 46 41 35 31 29 28 24 21 19 15 11 9 7 5 2 1 2 1 0 0 0 0 0 0 0 0 0 0 0 0 0
16 17 20 23 25 26 28 30 33 34 33 33 35 36 34 30 27 24 22 19 15 14 11 7 4 3 2 0 0 0 0 0 0 0 0 0 0 0 0 0 0 0 0 0
10 12 16 20 21 22 23 24 26 27 28 29 31 32 31 28 24 20 16 12 9 7 5 3 1 1 0 0 0 0 0 0 0 0 0 0 0 0 0 0 0 0 0 0
6 8 12 15 16 17 18 20 22 24 26 29 31 31 28 24 19 14 9 6 5 3 1 0 0 0 0 0 0 0 0 0 0 0 0 0 0 0 0 0 0 0 0 0
4 4 6 10 12 13 14 15 18 20 21 24 27 26 21 17 13 8 4 2 2 1 0 0 0 0 0 0 0 0 0 0 0 0 0 0 0 0 0 0 0 0 0 0
2 2 2 4 8 10 10 11 14 15 15 16 17 16 13 10 7 3 1 0 0 0 0 0 0 0 0 0 0 0 0 0 0 0 0 0 0 0 0 0 0 0 0 0
1 1 0 1 4 7 9 9 10 11 10 8 6 6 7 6 4 1 0 0 0 0 0 0 0 0 0 0 0 0 0 0 0 0 0 0 0 0 0 0 0 0 0 0
0 0 0 0 2 5 8 8 8 8 6 3 1 1 3 4 2 1 0 0 0 0 0 0 0 0 0 0 0 0 0 0 0 0 0 0 0 0 0 0 0 0 0 0
0 1 1 1 1 5 8 8 7 5 4 3 2 1 1 1 1 1 0 0 0 0 0 0 0 0 0 0 0 0 0 0 0 0 0 0 0 0 0 0 0 0 0 0
0 1 2 2 2 4 7 9 7 5 3 4 3 1 0 0 0 0 0 0 0 0 0 0 0 0 0 0 0 0 0 0 0 0 0 0 0 0 0 0 0 0 0 0
0 0 1 2 3 4 6 7 7 4 3 3 2 1 0 0 0 0 0 0 0 0 0 0 0 0 0 0 0 0 0 0 0 0 0 0 0 0 0 0 0 0 0 0
0 0 0 2 3 3 4 5 5 4 4 3 1 0 0 0 0 0 0 0 0 0 0 0 0 0 0 0 0 0 0 0 0 0 0 0 0 0 0 0 0 0 0 0
0 0 1 2 3 3 2 2 3 4 4 3 1 0 0 0 0 0 0 0 0 0 0 0 0 0 0 0 0 0 0 0 0 0 0 0 0 0 0 0 0 0 0 0
0 0 2 3 3 2 1 1 2 4 4 2 1 0 0 0 0 0 0 0 0 0 0 0 0 0 0 0 0 0 0 0 0 0 0 0 0 0 0 0 0 0 0 0
0 0 1 2 1 1 1 2 3 3 2 1 0 0 0 0 0 0 0 0 0 0 0 0 0 0 0 0 0 0 0 0 0 0 0 0 0 0 0 0 0 0 0 0
0 0 0 0 0 0 1 2 3 2 1 0 0 0 0 0 0 0 0 0 0 0 0 0 0 0 0 0 0 0 0 0 0 0 0 0 0 0 0 0 0 0 0 0
0 0 0 0 0 0 1 2 3 1 0 0 0 0 0 0 0 0 0 0 0 0 0 0 0 0 0 0 0 0 0 0 0 0 0 0 0 0 0 0 0 0 0 0
Wind_Speed
5 4 2 2 4 4 5 8 8 7 8 9 10 11 11 10 10 11 10 9 10 9 7 7 7 6 5 5 5 6 7 6 5 5 5 5 6 5 5 5 6 5 5 6
0 1 2 2 4 3 3 4 6 6 4 5 8 9 11 11 12 12 12 11 10 10 9 8 7 7 5 5 5 6 7 6 6 6 6 6 6 6 6 6 6 6 6 6
1 2 4 3 4 2 2 2 7 8 8 7 10 13 15 14 12 12 12 12 12 11 10 8 7 7 7 6 6 7 7 6 6 6 6 5 6 6 6 6 6 7 6 6
2 3 3 9 5 3 2 1 2 5 7 11 12 10 9 10 12 11 11 11 11 10 9 8 8 8 7 7 7 7 7 6 6 6 6 6 6 6 5 5 5 6 6 6
4 2 3 6 3 1 3 1 0 6 8 9 10 9 4 4 8 9 10 10 9 9 9 9 9 9 9 8 7 7 7 6 6 6 7 6 6 5 5 5 6 5 5 5
4 4 5 6 6 2 7 1 3 6 10 11 9 6 4 5 8 9 8 8 9 9 9 9 8 9 10 8 7 7 6 6 6 6 7 6 6 5 5 5 6 5 6 5
4 3 6 6 6 2 5 6 3 4 8 8 6 7 7 8 8 9 9 9 10 10 9 8 9 10 9 8 7 6 7 7 7 6 6 6 5 5 5 6 6 6 6 5
5 3 7 6 4 3 5 3 2 4 6 7 7 8 10 10 10 10 9 9 9 9 8 7 8 10 9 8 7 7 8 8 7 6 6 6 6 5 5 6 6 5 5 5
6 6 5 2 2 1 3 5 3 4 5 10 10 9 10 9 10 9 9 8 8 10 9 7 7 9 10 8 8 9 8 8 7 7 5 5 6 5 5 4 5 4 4 3
3 1 2 4 5 5 5 5 5 6 7 9 10 10 10 10 8 8 7 8 8 10 9 7 7 7 8 8 9 10 9 7 7 7 6 5 4 4 4 3 4 4 3 3
3 1 4 6 5 5 6 7 8 7 6 8 10 10 10 9 9 8 7 6 7 9 9 8 8 8 8 9 10 10 9 8 7 6 6 6 5 4 3 2 2 4 3 3
3 3 2 1 2 4 5 5 6 7 6 5 8 9 8 8 8 8 8 8 8 8 8 8 8 8 7 8 9 10 9 7 6 6 5 5 5 5 7 5 5 6 6 5
3 1 2 1 1 3 3 3 5 6 6 6 5 7 8 7 7 7 8 8 9 9 9 8 8 8 7 7 8 9 9 8 6 6 6 5 4 5 4 5 7 7 6 6
3 4 4 2 1 2 4 4 5 5 5 6 6 6 7 7 7 8 8 8 8 9 8 8 8 8 7 8 8 8 8 8 8 6 6 5 5 4 4 5 3 2 3 4
1 2 3 2 1 2 3 5 6 4 4 5 6 7 7 7 7 7 7 8 8 8 8 8 8 7 6 7 8 8 7 6 6 6 6 5 5 4 4 4 3 2 1 1
1 2 1 2 1 1 2 4 4 3 4 5 5 6 6 6 6 6 7 8 9 9 8 8 7 6 7 7 7 6 5 10 9 6 6 5 5 4 4 3 3 3 2 1
3 1 1 0 1 2 1 3 4 4 5 6 6 7 7 7 6 6 6 6 7 7 7 7 7 6 6 7 7 5 5 7 10 7 5 5 5 5 5 4 4 3 3 3
2 3 3 2 2 2 2 2 4 5 5 6 7 7 8 8 7 7 6 6 6 6 5 6 7 7 7 7 6 5 5 5 5 5 5 5 5 5 5 5 5 4 2 2
1 1 1 0 1 2 2 3 4 4 5 6 7 7 7 6 7 7 7 7 8 6 5 6 9 8 7 7 7 5 5 5 5 4 5 6 5 5 5 5 4 4 4 3
2 2 2 1 0 2 2 3 4 4 4 5 6 7 7 6 6 7 7 6 4 4 5 6 7 6 6 6 7 5 5 5 5 5 4 4 4 4 4 4 4 4 4 4
1 1 1 1 0 1 2 4 5 5 5 6 7 7 7 6 7 7 7 5 3 5 6 8 6 5 5 6 7 5 5 5 5 4 4 4 4 4 4 4 4 4 4 4
1 0 0 1 2 1 1 3 4 6 6 5 6 7 7 7 6 5 4 4 5 7 6 4 4 6 7 7 5 5 5 5 4 4 4 4 4 4 4 4 4 4 4 4
1 1 1 1 2 2 3 3 4 5 6 6 6 7 7 6 5 6 4 3 5 7 6 4 7 10 9 5 4 5 5 5 4 4 4 4 4 4 4 4 4 4 4 4
1 1 2 2 3 4 3 2 3 4 5 5 5 6 7 6 4 2 4 7 8 8 5 6 9 9 7 4 4 4 4 4 4 4 4 4 3 3 4 4 4 4 4 5
1 2 2 3 3 3 3 4 4 5 5 4 5 5 4 4 4 4 5 6 9 8 5 6 8 8 5 3 4 4 3 3 4 4 4 4 3 3 3 4 4 4 4 4
2 2 1 2 2 2 3 3 3 4 4 5 4 4 4 4 5 5 5 6 7 7 5 4 5 5 3 3 3 3 3 3 3 3 3 3 3 3 3 3 4 4 3 3
2 2 2 2 2 2 3 3 4 4 4 5 5 4 4 5 5 5 5 5 5 4 4 3 3 3 3 3 3 3 3 2 2 3 3 3 3 3 3 4 4 3 3 3
Wind_Direction
197 205 165 231 257 216 174 176 174 202 188 202 180 167 159 150 147 145 147 145 144 141 142 140 133 129 130 124 122 123 115 110 108 103 96 89 83 79 76 74 72 67 65 59
324 342 45 334 298 252 208 179 168 159 201 211 154 134 143 152 155 155 156 154 147 143 146 146 141 136 132 127 124 119 117 116 110 104 96 92 86 81 77 73 70 69 64 62
242 334 45 302 259 228 213 194 161 179 202 158 142 154 162 162 163 159 157 155 153 154 154 152 149 144 142 137 126 120 117 114 110 107 102 97 96 85 80 75 75 72 67 63
109 71 209 246 248 169 160 235 169 166 167 159 158 156 154 155 155 156 157 154 153 150 146 146 142 138 136 128 124 122 119 114 111 109 105 101 98 93 87 83 80 77 71 63
110 142 265 292 304 176 144 307 271 147 143 133 115 91 81 147 146 151 154 151 151 147 144 141 140 141 131 125 122 120 121 120 119 118 115 109 105 102 97 93 85 78 72 66
118 143 214 250 292 283 109 25 309 139 138 136 120 126 194 170 140 135 134 136 137 134 132 137 141 135 129 129 126 127 127 123 120 118 118 117 112 104 99 98 95 85 68 58
142 177 252 266 301 28 127 206 256 144 140 136 143 164 158 139 131 134 134 132 131 132 137 145 140 132 131 131 132 132 124 116 112 112 112 112 106 102 103 100 93 83 72 54
145 169 248 300 20 104 193 187 124 111 123 119 117 115 123 127 127 129 127 127 130 129 129 131 134 132 131 134 133 124 118 113 110 109 112 110 106 102 103 105 98 88 76 58
172 197 234 299 118 157 139 114 98 101 115 124 121 126 128 127 129 127 130 131 129 129 124 123 128 134 134 138 132 123 117 115 110 100 93 97 104 109 106 106 106 102 92 80
86 32 19 43 56 50 69 87 92 102 110 120 125 133 130 131 130 128 130 133 131 129 129 129 127 128 133 135 130 125 122 119 113 107 97 84 82 90 104 112 118 118 116 110
78 29 25 25 39 57 63 72 79 86 100 114 122 129 135 137 138 138 133 130 132 135 137 138 134 130 133 134 131 127 126 124 118 112 110 97 84 73 98 102 147 146 149 145
192 218 153 252 2 63 72 77 89 98 94 106 123 132 133 138 139 138 137 135 133 134 136 137 136 135 138 140 139 136 135 134 132 128 123 121 115 88 54 67 83 107 125 132
173 167 144 214 28 54 76 87 95 107 122 122 118 128 130 130 132 134 138 142 145 146 143 142 141 142 145 144 143 144 145 145 141 139 137 138 134 127 110 56 59 76 98 110
109 91 71 27 14 56 89 90 89 93 106 121 120 119 123 123 128 137 147 150 144 141 141 144 144 148 153 149 146 147 148 151 149 149 149 149 146 141 138 137 123 68 52 89
75 111 158 182 49 58 86 96 90 91 102 110 118 123 129 134 139 144 144 142 138 139 143 145 145 151 155 152 152 154 155 156 155 152 151 151 147 143 140 139 136 134 95 44
83 70 83 84 43 79 98 107 119 138 140 134 130 133 136 135 134 136 143 146 147 152 155 152 154 159 154 148 145 147 151 154 153 152 152 151 149 148 149 148 147 147 153 163
115 125 157 199 279 263 185 159 162 165 154 147 151 145 137 130 128 134 142 147 147 149 152 153 156 156 151 148 145 144 141 147 146 145 151 155 157 159 158 156 160 165 179 175
203 202 204 204 224 228 205 176 157 156 165 163 151 146 148 149 151 150 144 135 127 127 139 150 149 147 146 146 144 142 141 140 140 143 145 149 155 160 159 161 167 168 171 160
284 258 260 243 220 189 175 159 150 148 150 148 147 151 151 149 149 146 139 138 141 145 155 148 142 141 143 148 143 140 142 141 138 141 145 149 151 157 162 166 171 175 166 154
19 27 34 4 341 150 157 156 141 134 138 142 141 139 140 144 144 142 139 145 160 159 151 141 138 138 144 149 145 142 145 147 147 146 145 152 156 160 162 165 166 164 161 160
355 17 26 357 122 117 137 145 144 143 142 141 144 147 146 144 143 142 140 141 152 138 136 136 139 142 142 143 141 141 143 146 148 148 152 155 155 159 161 160 163 167 168 168
330 307 280 133 121 95 94 118 131 135 135 135 137 137 137 139 140 136 139 150 151 141 138 141 142 141 139 135 134 139 143 147 147 150 156 156 156 161 166 164 165 171 172 172
358 28 88 128 136 122 96 105 123 129 131 135 142 145 144 146 148 146 147 151 143 140 136 138 136 131 128 127 131 137 141 145 150 158 161 159 159 161 165 167 169 171 172 176
67 82 86 107 110 106 107 112 115 118 121 125 133 138 137 133 127 131 135 142 142 137 133 136 132 128 126 126 127 132 139 143 147 153 157 157 158 159 163 168 170 174 176 175
107 102 93 100 107 116 123 123 112 111 113 110 112 116 121 131 139 142 135 140 140 132 129 136 134 132 131 133 134 135 141 150 153 153 155 157 162 164 169 173 173 173 176 178
117 119 120 121 125 129 130 125 122 123 120 116 110 108 109 111 117 120 124 132 134 132 132 136 139 135 132 134 139 143 148 150 150 156 156 158 163 164 167 172 171 168 173 176
100 102 99 90 79 103 120 125 128 126 124 128 124 121 122 122 121 123 125 126 129 131 130 133 138 142 145 148 150 150 149 147 152 159 159 159 159 168 172 167 165 165 166 167